Orbital Elements at Epoch 2459200.5 (2020-Dec-17.0) TDB
Reference: JPL 10 (heliocentric ecliptic J2000)
Element | Value | Uncertainty (1-sigma) | Units |
e | .1537829832679975 | 7.1369e-08 | |
a | 2.339861746504529 | 2.0921e-08 | au |
q | 1.980030826692396 | 1.5977e-07 | au |
i | 1.672779096626933 | 7.7671e-06 | deg |
node | 34.15121469674467 | 0.00024084 | deg |
peri | 117.3002377293017 | 0.00024316 | deg |
M | 53.76871254311182 | 3.1709e-05 | deg |
tp | 2459005.241090338251 (2020-Jun-04.74109034) | 0.000114 | TDB |
period | 1307.325471515958 3.58 | 1.7533e-05 4.8e-08 | d yr |
n | .2753713653131445 | 3.6932e-09 | deg/d |
Q | 2.699692666316663 | 2.4138e-08 | au |
|
| | Orbit Determination Parameters
Additional Information
|